Tracking 27380 objects as of 5-Jun-2023
HD Live streaming from Space Station
objects crossing your sky now

FREGAT DEB

Track FREGAT DEB now!
10-day predictions


NORAD ID: 46006
Int'l Code: 2011-037HH
Perigee: 341.9 km
Apogee: 3,414.5 km
Inclination: 51.4 °
Period: 124.3 minutes
Semi major axis: 8249 km
RCS: Unknown
Launch date: July 18, 2011
Source: Commonwealth of Independent States (former USSR) (CIS)
Launch site: TYURATAM MISSILE AND SPACE COMPLEX (TTMTR)

Note: This is SATELLITE DEBRIS
Your satellite tracking list
Your tracking list is empty




NASA's NSSDC Master Catalog

Two Line Element Set (TLE):
1 46006U 11037HH  23155.84353437  .00028166  00000-0  19530-2 0  9994
2 46006  51.4338  15.0240 1862407  69.0886 309.8746 11.58740424118978
Source of the keplerian elements: AFSPC